Location: Dennis Manor
(64.8292°N, 147.5397°W)
Time: 17:21:35
(UTC+00:00)

Envisat - Pass Details

Date: 05 November 2020
Orbit: 764 x 766 km, 98.1° (Epoch: 25 November)

Event Time Altitude Azimuth Distance (km) Brightness Sun altitude
Rises 04:25:26 0° 217° (SW) 3,231 6.7 -19.8°
Reaches altitude 10° 04:28:27 10° 236° (SW) 2,309 6.2 -20.1°
Maximum altitude 04:31:55 18° 279° (W) 1,811 5.9 -20.4°
Drops below altitude 10° 04:35:25 10° 322° (NW) 2,318 6.1 -20.8°
Sets 04:38:28 0° 341° (NNW) 3,249 6.6 -21.1°
